Retour au catalogue

STARLINK-32011

ActifCommunicationsVLEO
NORAD 60030·PAYLOAD·🇺🇸 United States

Lancé Jun 8, 2024 depuis Cape Canaveral Space Force Station

Loading…

Prochains Passages (prochaines 24 heures)

TLE

FraisSource: CelesTrak SupGP

Époque: Sep 14, 2026, 14:09 UTC

1 60030C 24111Q   26257.59006944  .00005826  00000+0  17216-3 0  2574
2 60030  53.1572 273.6721 0001419  74.2465 117.4812 15.34379884    12

Suivez STARLINK-32011 en temps réel avec AllMySat

Download on the App Store